Regional Weather Roundup
Issued by NWS New Orleans/Baton Rouge, LA

Home | Current Version | Previous Version | Graphics & Text | Print | Product List | Glossary On
Versions: 1 2 3 4 5 6 7 8 9 10 11 12 13 14 15 16 17 18 19 20 21 22 23 24 25 26 27 28 29 30 31 32 33 34 35 36 37 38 39 40 41 42 43 44 45 46 47 48 49 50
124
ASUS44 KLIX 230210
RWRLIX
NEW ORLEANS REGIONAL WEATHER ROUNDUP
NATIONAL WEATHER SERVICE NEW ORLEANS LA
800 PM CST SAT NOV 22 2014

NOTE: "FAIR" INDICATES FEW OR NO CLOUDS BELOW 12,000 FEET WITH NO
      SIGNIFICANT WEATHER AND/OR OBSTRUCTIONS TO VISIBILITY.
      SKY/WX - SKY CONDITION AND SIGNIFICANT WEATHER.
      TMP - AIR TEMPERATURE.     DP    - DEWPOINT TEMPERATURE.
      RH  - RELATIVE HUMIDITY.   PRES  - PRESSURE.
      HI  - HEAT INDEX.          WCI   - WIND CHILL INDEX.

*  THESE STATIONS ARE NOT NWS OR FAA STATIONS AND ARE NOT UNDER
   NWS QUALITY CONTROL.

LAZ038-040-048-061>063-065>067-069-230300-
SOUTHEAST LOUISIANA

CITY           SKY/WX    TMP DP  RH WIND       PRES   REMARKS
N.O. AUDUBON     N/A     64  61  91 MISG        N/A
N.O. INTL ARPT CLOUDY    63  60  90 E12       29.99F
N.O. LAKEFRONT CLOUDY    62  59  90 E13       30.00F
N.O. DOWNTOWN* CLOUDY    63  57  82 E5        30.00F
SLIDELL        CLOUDY    65  61  87 E10       30.01F
BATON ROUGE    CLOUDY    64  59  83 E12       29.95F
BOOTHVILLE     CLOUDY    65  64  97 NE3       29.98F
BELLE CHASSE   CLOUDY    66  61  84 E13       29.99F
BOGALUSA*        N/A     64  57  80 E3        30.04S
NEW ROADS*     CLOUDY    64  59  83 E14G20    29.94F
GONZALES*      CLOUDY    62  62 100 E8        29.94F
HAMMOND*       CLOUDY    63  57  82 E7        30.02S
HOUMA*         CLOUDY    64  63  96 E10       29.96F
PORT FOURCHON* CLOUDY    68  64  88 E8        30.01S

$$

MSZ070-080>082-230300-
SOUTHERN MISSISSIPPI

CITY           SKY/WX    TMP DP  RH WIND       PRES   REMARKS
MCCOMB         CLOUDY    61  55  81 VRB5      30.01F
GULFPORT       CLOUDY    63  60  90 E12       30.03F
BILOXI         CLOUDY    62  61  95 E12       30.03F
PASCAGOULA     CLOUDY    62  59  90 E10       30.05F
STENNIS ARPT*  CLOUDY    64  57  77 E8G16     30.03F

$$

COASTAL OBSERVATIONS
LAKE AND NEARSHORE STATIONS

STATION/POSITION TIME  TEMP    WIND        PRES    WAVE
                       AIR SEA DIR/SP/G            HT/PER
                 (UTC) (F)     (DEG/KT/KT) (MB)    (FT/S)
PASCAGOULA       0200   61      70/ 14/ 18 1016.9
WAVELAND YACHT   0200   62     100/ 16/ 23 1015.5
GRAND ISLE       0200   65 62   60/  8/ 11 1015.7
SOUTHWEST PASS   0200   69 72              1014.0
NEW CANAL        0200   63 55   90/  4/  9 1016.1
SHELL BEACH      0200   62 53   90/ 11/ 12 1015.9

OFFSHORE STATIONS

STATION/POSITION TIME  TEMP    WIND        PRES    WAVE
                       AIR SEA DIR/SP/G            HT/PER
                 (UTC) (F)     (DEG/KT/KT) (MB)    (FT/S)
64 S DAUPHIN ISL 0148   70 72  100/ 23/ 27 1016.2    7/ 8

$$




USA.gov is the U.S. government's official web portal to all federal, state and local government web resources and services.